Weather in Valuy

Russia / Belgorod Oblast     50°30′44″N   38°23′26″E
temp.,
°C
wind,
m/s
gust,
m/s
humid.,
%
clouds,
%
prec.,
mm/h
press.,
hPa
HPBL,
m
4 december, sat
sat400:00+8ssw91684100 0.1 1006944
03:00+3nw81195100 1.6 1008515
06:00+2nw3696100 1.5 1010369
09:00+2wnw4781100 1.5 1013631
12:00+2wnw4658100 0.0 1014629
15:00+2nw3563100 0.0 1014584
18:000nnw2475100 0.0 1014224
21:000nne1279100 0.0 101554
5 december, sun
sun500:00−1ne2382100 0.0 101575
03:00−2ne348670 0.0 101592
06:00−3ne358599 0.0 1015150
09:00−3ne378244 0.0 1015232
12:00+1ene45610 0.0 1015452
15:00+1ne35590 0.0 1015403
18:00−2ene347411 0.0 101772
21:00−2e3572100 0.0 1018112
6 december, mon
mon600:00−2e2472100 0.0 101968
03:00−2ese2374100 0.0 101971
06:00−2ese2477100 0.0 1019126
09:00−2ese3682100 0.0 1020217
12:00+1sse3581100 0.0 1020358
15:00+1se3585100 0.0 1019324
18:000se379397 0.0 1020167
21:00+1se4895100 0.0 1020272
7 december, tue
tue700:00+1se51196100 0.0 1019343
03:00+1se61498100 3.0 1017354
06:00+3sse71497100 1.8 1015399
09:00+4sse61496100 2.8 1015388
12:00+7s61388100 1.3 1015459
15:00+6s41494100 1.3 1014416
18:00+6sse51183100 0.0 1013242
21:00+4se41190100 0.0 1013232
8 december, wed
wed800:00+4sse51390100 0.0 1012285
03:00+4sse51291100 0.0 1011251
06:00+4se41092100 0.0 1010218
09:00+4se41093100 0.0 1010249
12:00+5se51086100 0.0 1009375
15:00+5se5888100 0.0 1008416
18:00+4ese4990100 0.0 1008269
21:00+4se4994100 0.0 1009263